| time (UTC) | temp F | wind direction | speed MPH | gust MPH | rain 1hr in | rain 24hr in | rain mn in | humidity % | barometer mb |
| 20260506072122 | 55 | 261 | 2.0 | 6.0 | 0.00 | 0.10 | 0.00 | 89 | 1020.8 |
| 20260506071122 | 55 | 259 | 3.0 | 6.0 | 0.00 | 0.10 | 0.00 | 89 | 1020.8 |
| 20260506070122 | 55 | 261 | 2.0 | 6.0 | 0.00 | 0.10 | 0.00 | 89 | 1020.7 |
| 20260506062122 | 55 | 261 | 2.0 | 4.0 | 0.00 | 0.11 | 0.10 | 89 | 1020.5 |
| 20260506061122 | 55 | 260 | 2.0 | 6.0 | 0.00 | 0.11 | 0.10 | 89 | 1020.4 |
| 20260506060123 | 55 | 255 | 2.0 | 5.0 | 0.00 | 0.11 | 0.10 | 89 | 1020.4 |
| 20260506051123 | 56 | 238 | 2.0 | 4.0 | 0.00 | 0.11 | 0.10 | 89 | 1020.3 |
| 20260506050124 | 56 | 239 | 1.0 | 3.0 | 0.00 | 0.11 | 0.10 | 89 | 1020.3 |
| 20260506045124 | 56 | 225 | 2.0 | 5.0 | 0.00 | 0.11 | 0.10 | 89 | 1020.1 |
| 20260506044123 | 56 | 222 | 1.0 | 5.0 | 0.00 | 0.11 | 0.10 | 89 | 1020.0 |
| 20260506043122 | 56 | 219 | 1.0 | 3.0 | 0.00 | 0.11 | 0.10 | 89 | 1020.0 |
| 20260506042122 | 56 | 218 | 2.0 | 4.0 | 0.00 | 0.11 | 0.10 | 89 | 1019.9 |
| 20260506041122 | 56 | 212 | 1.0 | 4.0 | 0.00 | 0.11 | 0.10 | 89 | 1019.7 |
| 20260506040123 | 56 | 213 | 1.0 | 3.0 | 0.00 | 0.11 | 0.10 | 88 | 1019.6 |
| 20260506035122 | 56 | 173 | 1.0 | 4.0 | 0.00 | 0.11 | 0.10 | 88 | 1019.6 |
| 20260506034123 | 56 | 160 | 1.0 | 4.0 | 0.00 | 0.11 | 0.10 | 88 | 1019.3 |
| 20260506033122 | 56 | 198 | 2.0 | 6.0 | 0.00 | 0.11 | 0.10 | 88 | 1019.2 |
| 20260506032123 | 56 | 235 | 2.0 | 5.0 | 0.00 | 0.11 | 0.10 | 87 | 1019.1 |
| 20260506031122 | 56 | 231 | 2.0 | 3.0 | 0.00 | 0.11 | 0.10 | 87 | 1018.9 |
| 20260506030122 | 56 | 240 | 2.0 | 5.0 | 0.00 | 0.11 | 0.10 | 87 | 1018.9 |
| 20260506025123 | 56 | 244 | 2.0 | 7.0 | 0.00 | 0.11 | 0.10 | 86 | 1018.8 |
| 20260506024143 | 56 | 248 | 3.0 | 8.0 | 0.00 | 0.11 | 0.10 | 86 | 1018.7 |
| 20260506023123 | 56 | 232 | 2.0 | 6.0 | 0.00 | 0.11 | 0.10 | 85 | 1018.6 |
| 20260506022123 | 56 | 231 | 3.0 | 8.0 | 0.00 | 0.11 | 0.10 | 85 | 1018.6 |
| 20260506021122 | 57 | 223 | 2.0 | 7.0 | 0.00 | 0.11 | 0.10 | 84 | 1018.6 |
| 20260506020122 | 57 | 239 | 4.0 | 10.0 | 0.00 | 0.11 | 0.10 | 84 | 1018.8 |
| 20260506015144 | 58 | 198 | 3.0 | 7.0 | 0.00 | 0.11 | 0.10 | 83 | 1018.7 |
| 20260506014143 | 58 | 238 | 3.0 | 7.0 | 0.00 | 0.11 | 0.10 | 82 | 1018.7 |
| 20260506013123 | 59 | 243 | 3.0 | 8.0 | 0.00 | 0.11 | 0.10 | 82 | 1018.8 |
| 20260506012123 | 59 | 234 | 3.0 | 7.0 | 0.00 | 0.11 | 0.10 | 81 | 1018.6 |
| 20260506011122 | 59 | 251 | 4.0 | 9.0 | 0.00 | 0.11 | 0.10 | 82 | 1018.6 |
| 20260506010122 | 60 | 216 | 3.0 | 10.0 | 0.00 | 0.11 | 0.10 | 81 | 1018.5 |
| 20260506005122 | 60 | 240 | 4.0 | 9.0 | 0.00 | 0.11 | 0.10 | 81 | 1018.5 |
| 20260506004122 | 60 | 243 | 3.0 | 8.0 | 0.00 | 0.11 | 0.10 | 80 | 1018.3 |
| 20260506003124 | 60 | 196 | 4.0 | 10.0 | 0.00 | 0.11 | 0.10 | 81 | 1018.2 |
| 20260506002122 | 59 | 223 | 3.0 | 9.0 | 0.00 | 0.11 | 0.10 | 81 | 1018.2 |
| 20260506001144 | 59 | 255 | 5.0 | 12.0 | 0.00 | 0.11 | 0.10 | 81 | 1018.2 |
| 20260506000123 | 59 | 223 | 3.0 | 8.0 | 0.00 | 0.11 | 0.10 | 81 | 1018.2 |
| 20260505235123 | 59 | 185 | 3.0 | 9.0 | 0.00 | 0.11 | 0.10 | 80 | 1018.3 |
| 20260505234123 | 59 | 215 | 2.0 | 6.0 | 0.00 | 0.11 | 0.10 | 80 | 1018.4 |
| 20260505233123 | 59 | 219 | 3.0 | 6.0 | 0.00 | 0.11 | 0.10 | 80 | 1018.4 |
| 20260505232123 | 59 | 235 | 3.0 | 9.0 | 0.00 | 0.11 | 0.10 | 80 | 1018.4 |
| 20260505231122 | 59 | 189 | 3.0 | 9.0 | 0.00 | 0.11 | 0.10 | 80 | 1018.5 |
| 20260505230123 | 60 | 257 | 5.0 | 12.0 | 0.00 | 0.11 | 0.10 | 80 | 1018.4 |
| 20260505225122 | 60 | 234 | 4.0 | 10.0 | 0.00 | 0.11 | 0.10 | 79 | 1018.3 |
| 20260505224144 | 60 | 257 | 5.0 | 14.0 | 0.00 | 0.11 | 0.10 | 79 | 1018.3 |
| 20260505223122 | 60 | 257 | 6.0 | 11.0 | 0.00 | 0.11 | 0.10 | 80 | 1018.4 |
| 20260505222123 | 60 | 235 | 4.0 | 8.0 | 0.00 | 0.11 | 0.10 | 80 | 1018.4 |
| 20260505221122 | 60 | 271 | 6.0 | 10.0 | 0.00 | 0.11 | 0.10 | 80 | 1018.4 |
| 20260505220123 | 60 | 265 | 6.0 | 12.0 | 0.00 | 0.11 | 0.10 | 79 | 1018.3 |
| 20260505215123 | 60 | 269 | 6.0 | 11.0 | 0.00 | 0.11 | 0.10 | 79 | 1018.5 |
| 20260505214123 | 59 | 260 | 4.0 | 10.0 | 0.00 | 0.11 | 0.10 | 80 | 1018.4 |
| 20260505213122 | 59 | 270 | 5.0 | 10.0 | 0.00 | 0.11 | 0.10 | 80 | 1018.5 |
| 20260505212122 | 60 | 275 | 5.0 | 10.0 | 0.00 | 0.11 | 0.10 | 80 | 1018.5 |
| 20260505211122 | 60 | 270 | 7.0 | 10.0 | 0.00 | 0.11 | 0.10 | 81 | 1018.6 |
| 20260505210143 | 59 | 301 | 6.0 | 11.0 | 0.00 | 0.11 | 0.10 | 80 | 1018.5 |
| 20260505205123 | 59 | 272 | 6.0 | 12.0 | 0.00 | 0.11 | 0.10 | 79 | 1018.3 |
| 20260505204123 | 60 | 261 | 6.0 | 10.0 | 0.00 | 0.11 | 0.10 | 78 | 1018.4 |
| 20260505203123 | 59 | 244 | 4.0 | 12.0 | 0.00 | 0.11 | 0.10 | 79 | 1018.4 |
| 20260505202122 | 58 | 270 | 6.0 | 10.0 | 0.00 | 0.11 | 0.10 | 80 | 1018.4 |
| 20260505201122 | 59 | 270 | 6.0 | 11.0 | 0.00 | 0.11 | 0.10 | 82 | 1018.5 |
| 20260505200122 | 58 | 256 | 6.0 | 12.0 | 0.00 | 0.11 | 0.10 | 82 | 1018.4 |
| 20260505195122 | 58 | 252 | 5.0 | 11.0 | 0.00 | 0.11 | 0.10 | 84 | 1018.6 |
| 20260505194122 | 58 | 245 | 5.0 | 9.0 | 0.00 | 0.11 | 0.10 | 85 | 1018.6 |
| 20260505193123 | 57 | 238 | 4.0 | 9.0 | 0.00 | 0.11 | 0.10 | 87 | 1018.6 |
| 20260505192143 | 57 | 230 | 4.0 | 8.0 | 0.00 | 0.11 | 0.10 | 88 | 1018.6 |
| 20260505191122 | 56 | 252 | 5.0 | 10.0 | 0.00 | 0.11 | 0.10 | 88 | 1018.6 |
| 20260505190123 | 56 | 254 | 4.0 | 8.0 | 0.00 | 0.11 | 0.10 | 89 | 1018.5 |
| 20260505185123 | 56 | 294 | 3.0 | 6.0 | 0.00 | 0.11 | 0.10 | 90 | 1018.4 |
| 20260505184143 | 56 | 286 | 4.0 | 9.0 | 0.00 | 0.11 | 0.10 | 91 | 1018.5 |
| 20260505183123 | 56 | 317 | 5.0 | 10.0 | 0.00 | 0.11 | 0.10 | 91 | 1018.5 |
| 20260505182122 | 55 | 257 | 5.0 | 10.0 | 0.00 | 0.11 | 0.10 | 92 | 1018.4 |
| 20260505181123 | 55 | 272 | 5.0 | 9.0 | 0.00 | 0.11 | 0.10 | 92 | 1018.2 |
| 20260505180123 | 55 | 248 | 4.0 | 9.0 | 0.00 | 0.11 | 0.10 | 93 | 1018.2 |
| 20260505175143 | 55 | 266 | 4.0 | 9.0 | 0.00 | 0.11 | 0.10 | 92 | 1018.1 |
| 20260505174122 | 55 | 265 | 5.0 | 9.0 | 0.00 | 0.11 | 0.10 | 93 | 1018.1 |
| 20260505173123 | 55 | 315 | 4.0 | 8.0 | 0.00 | 0.11 | 0.10 | 93 | 1018.1 |
| 20260505172144 | 54 | 300 | 5.0 | 10.0 | 0.00 | 0.11 | 0.10 | 93 | 1017.9 |
| 20260505171122 | 54 | 301 | 3.0 | 7.0 | 0.00 | 0.11 | 0.10 | 93 | 1017.8 |
| 20260505170144 | 54 | 301 | 5.0 | 10.0 | 0.00 | 0.11 | 0.10 | 93 | 1017.7 |
| 20260505165122 | 54 | 264 | 3.0 | 8.0 | 0.00 | 0.11 | 0.10 | 93 | 1017.8 |
| 20260505164123 | 54 | 227 | 3.0 | 6.0 | 0.00 | 0.11 | 0.10 | 93 | 1017.8 |
| 20260505163144 | 54 | 203 | 3.0 | 7.0 | 0.00 | 0.11 | 0.10 | 93 | 1017.7 |
| 20260505162122 | 53 | 236 | 2.0 | 6.0 | 0.00 | 0.11 | 0.10 | 93 | 1017.7 |
| 20260505161122 | 53 | 247 | 1.0 | 4.0 | 0.00 | 0.11 | 0.10 | 93 | 1017.6 |
| 20260505160143 | 53 | 250 | 2.0 | 5.0 | 0.00 | 0.11 | 0.10 | 92 | 1017.6 |
| 20260505153123 | 53 | 224 | 2.0 | 5.0 | 0.00 | 0.10 | 0.10 | 93 | 1017.4 |
| 20260505152122 | 53 | 224 | 2.0 | 7.0 | 0.00 | 0.10 | 0.10 | 93 | 1017.3 |
| 20260505151123 | 52 | 236 | 1.0 | 3.0 | 0.00 | 0.10 | 0.10 | 93 | 1017.2 |
| 20260505150123 | 52 | 261 | 1.0 | 6.0 | 0.00 | 0.10 | 0.10 | 93 | 1017.0 |
| 20260505140122 | 51 | 271 | 0.0 | 2.0 | 0.00 | 0.10 | 0.10 | 93 | 1016.9 |
| 20260505130123 | 50 | 267 | 1.0 | 2.0 | 0.00 | 0.10 | 0.10 | 92 | 1016.6 |
| 20260505124122 | 50 | 267 | 0.0 | 2.0 | 0.00 | 0.10 | 0.10 | 92 | 1016.7 |
| 20260505123123 | 50 | 268 | 0.0 | 2.0 | 0.00 | 0.10 | 0.10 | 92 | 1016.7 |
| 20260505122122 | 50 | 267 | 0.0 | 1.0 | 0.00 | 0.10 | 0.10 | 92 | 1016.7 |
| 20260505121143 | 50 | 267 | 0.0 | 2.0 | 0.00 | 0.10 | 0.10 | 92 | 1016.5 |
| 20260505120123 | 50 | 269 | 0.0 | 0.0 | 0.00 | 0.10 | 0.10 | 92 | 1016.7 |
| 20260505115144 | 50 | 269 | 0.0 | 0.0 | 0.00 | 0.10 | 0.10 | 92 | 1016.6 |
| 20260505114122 | 50 | 269 | 1.0 | 2.0 | 0.00 | 0.10 | 0.10 | 92 | 1016.7 |
| 20260505113122 | 50 | 269 | 1.0 | 2.0 | 0.00 | 0.10 | 0.10 | 92 | 1016.9 |
| 20260505112143 | 51 | 269 | 0.0 | 1.0 | 0.00 | 0.10 | 0.10 | 92 | 1016.7 |
| 20260505111123 | 51 | 269 | 1.0 | 2.0 | 0.00 | 0.10 | 0.10 | 92 | 1016.8 |
| 20260505110144 | 51 | 269 | 0.0 | 0.0 | 0.00 | 0.10 | 0.10 | 92 | 1016.8 |
| 20260505102122 | 51 | 268 | 0.0 | 0.0 | 0.00 | 0.10 | 0.10 | 92 | 1016.7 |
| 20260505101123 | 51 | 269 | 0.0 | 2.0 | 0.00 | 0.10 | 0.10 | 92 | 1016.8 |
| 20260505100122 | 51 | 269 | 0.0 | 2.0 | 0.00 | 0.10 | 0.10 | 92 | 1016.8 |
| 20260505095122 | 51 | 269 | 1.0 | 2.0 | 0.01 | 0.10 | 0.10 | 91 | 1016.8 |
| 20260505094122 | 51 | 270 | 1.0 | 2.0 | 0.02 | 0.10 | 0.10 | 91 | 1016.9 |
| 20260505093123 | 51 | 271 | 1.0 | 4.0 | 0.02 | 0.10 | 0.09 | 91 | 1017.1 |
| 20260505092122 | 51 | 269 | 0.0 | 3.0 | 0.03 | 0.10 | 0.09 | 91 | 1017.1 |
| 20260505091122 | 51 | 269 | 0.0 | 0.0 | 0.05 | 0.10 | 0.09 | 91 | 1017.3 |
| 20260505090143 | 51 | 269 | 0.0 | 2.0 | 0.05 | 0.10 | 0.09 | 90 | 1017.4 |
| 20260505085122 | 51 | 269 | 0.0 | 1.0 | 0.05 | 0.09 | 0.07 | 90 | 1017.3 |
| 20260505084122 | 51 | 269 | 0.0 | 1.0 | 0.05 | 0.07 | 0.07 | 90 | 1017.2 |
| 20260505083122 | 51 | 269 | 1.0 | 3.0 | 0.05 | 0.07 | 0.05 | 90 | 1017.2 |
| 20260505082122 | 51 | 269 | 1.0 | 2.0 | 0.05 | 0.05 | 0.05 | 90 | 1017.4 |
| 20260505081122 | 51 | 269 | 0.0 | 2.0 | 0.03 | 0.05 | 0.03 | 89 | 1017.5 |
| 20260505080122 | 51 | 270 | 1.0 | 3.0 | 0.02 | 0.03 | 0.02 | 89 | 1017.6 |
| 20260505075122 | 51 | 270 | 1.0 | 3.0 | 0.01 | 0.02 | 0.01 | 89 | 1017.5 |
| 20260505074122 | 51 | 271 | 0.0 | 0.0 | 0.00 | 0.01 | 0.00 | 89 | 1017.8 |
| 20260505073143 | 51 | 271 | 0.0 | 0.0 | 0.01 | 0.01 | 0.00 | 88 | 1017.8 |